Regional Weather Roundup
Issued by NWS

Home | Current Version | Previous Version | Text Only | Print | Product List | Glossary Off
Versions: 1 2 3 4 5 6 7 8 9 10 11 12 13 14 15 16 17 18 19 20 21 22 23 24 25 26 27 28 29 30 31 32 33 34 35 36 37 38 39 40 41 42 43 44 45 46 47 48 49 50

000
ASUS43 KLSX 311507
RWRMO

WEATHER SUMMARY FOR MISSOURI
NATIONAL WEATHER SERVICE SPRINGFIELD MO
900 AM CST SAT JAN 31 2015

NOTE: "FAIR" INDICATES FEW OR NO CLOUDS BELOW 12,000 FEET WITH NO
       SIGNIFICANT WEATHER AND/OR OBSTRUCTIONS TO VISIBILITY.
       CURRENT SKY AND/OR WEATHER CONDITIONS ARE NOT AVAILABLE FOR
       CHILLICOTHE AND FARMINGTON.

MOZ001>031-035>038-043-044-053-054-311600-
...NORTHERN AND WESTERN MISSOURI...

CITY           SKY/WX    TMP DP  RH WIND       PRES   REMARKS
KANSAS CTY INT RAIN      35  34  96 SE8       30.23S FOG     WCI  29
KANSAS C DTWN  LGT RAIN  36  34  92 NE5       30.25S FOG
LEE`S SUMMIT   LGT RAIN  35  33  92 SE6       30.25S FOG
ST JOSEPH      LGT RAIN  35  35 100 SE3       30.24F FOG
CHILLICOTHE      N/A     34  32  92 S3        30.28S
KIRKSVILLE     MIX PCPN  32  28  85 SW7       30.27R FOG     WCI  26

$$
MOZ066>068-077>081-088>096-101>105-311600-
...SOUTHWEST MISSOURI...

CITY           SKY/WX    TMP DP  RH WIND       PRES   REMARKS
SPRINGFIELD    CLOUDY    39  26  59 S12       30.26R
JOPLIN         CLOUDY    42  26  53 SE5       30.25R

$$
MOZ032>034-039>042-045>050-055>058-069>072-311600-
...CENTRAL MISSOURI...

CITY           SKY/WX    TMP DP  RH WIND       PRES   REMARKS
COLUMBIA       CLOUDY    35  23  61 S7        30.30S WCI  29
JEFFERSON CITY CLOUDY    34  24  67 SE3       30.31F
ROLLA          CLOUDY    36  24  62 S12       30.29S WCI  28
SEDALIA        LGT RAIN  36  31  82 S8        30.31R WCI  30
WHITEMAN AFB   LGT RAIN  34  31  88 SE6       30.28R WCI  28
WARRENSBURG    DRIZZLE   34  32  93 CALM      30.28S
OSAGE BEACH    CLOUDY    37  21  52 SE5       30.29S

$$
MOZ051-052-059>065-311600-
...EAST CENTRAL MISSOURI...

CITY           SKY/WX    TMP DP  RH WIND       PRES   REMARKS
ST LOUIS INTL  CLOUDY    37  22  54 SW5       30.33F
SPIRIT OF STL  CLOUDY    33  27  78 CALM      30.33S
ST CHARLES     CLOUDY    32  26  78 CALM      30.34S

$$
MOZ072>076-082>087-097>100-106>115-311600-
...SOUTH CENTRAL AND SOUTHEAST MISSOURI...

CITY           SKY/WX    TMP DP  RH WIND       PRES   REMARKS
CAPE GIRARDEAU CLOUDY    34  27  75 E3        30.39S
FARMINGTON     CLOUDY    36  21  55 S6        30.37S
POPLAR BLUFF   CLOUDY    34  28  79 NE3       30.38R
WEST PLAINS    CLOUDY    35  24  64 E6        30.31F

$$



USA.gov is the U.S. government's official web portal to all federal, state and local government web resources and services.